Regional Weather Roundup
Issued by NWS

Home | Current Version | Previous Version | Text Only | Print | Product List | Glossary Off
Versions: 1 2 3 4 5 6 7 8 9 10 11 12 13 14 15 16 17 18 19 20 21 22 23 24 25 26 27 28 29 30 31 32 33 34 35 36 37 38 39 40 41 42 43 44 45 46 47 48 49 50

990
ASUS44 KLIX 010111
RWRLA
LOUISIANA WEATHER ROUNDUP
NATIONAL WEATHER SERVICE NEW ORLEANS LA
800 PM CDT TUE MAR 31 2015

NOTE: "FAIR" INDICATES FEW OR NO CLOUDS BELOW 12,000 FEET WITH NO
      SIGNIFICANT WEATHER AND/OR OBSTRUCTIONS TO VISIBILITY.
      SKY/WX - SKY CONDITION AND SIGNIFICANT WEATHER.
      TMP - AIR TEMPERATURE.    DP   - DEWPOINT TEMPERATURE.
      RH  - RELATIVE HUMIDITY.  PRES - PRESSURE.
      HX  - HEAT INDEX.         WCI  - WIND CHILL INDEX.

*  THESE STATIONS ARE NOT NWS OR FAA STATIONS AND ARE NOT UNDER
   NWS QUALITY CONTROL.

LAZ040-048-061>063-065-066-069-010200-
SOUTHEAST LOUISIANA

CITY           SKY/WX    TMP DP  RH WIND       PRES   REMARKS
N.O. AUDUBON     N/A     73  67  82 MISG        N/A
N.O. INTL ARPT PTCLDY    73  60  63 SW10      30.04R
N.O. LAKEFRONT CLEAR     76  62  62 SW14      30.04R
SLIDELL        CLEAR     75  60  59 SW6       30.03R
BATON ROUGE    CLEAR     73  58  59 SW10      30.02R
BOOTHVILLE     CLEAR     74  66  76 SW13      30.06R
BELLE CHASSE   PTCLDY    72  62  71 SW8       30.04R
BOGALUSA*        N/A     75  58  54 SW6       30.03R
GALLIANO*      CLEAR     73  64  71 SW8       30.06R
NEW ROADS*     FAIR      72  56  58 S7        30.02R
GONZALES*      FAIR      72  62  70 SW3       30.04R
HAMMOND*       CLEAR     73  57  56 SW5       30.05R
HOUMA*         PTCLDY    71  65  81 W5        30.05R
PORT FOURCHON* CLEAR     73  66  78 W10       30.10R

$$

LAZ041-044-053-054-010200-
SOUTHWEST LOUISIANA

CITY           SKY/WX    TMP DP  RH WIND       PRES   REMARKS
LAKE CHARLES   PTCLDY    70  64  81 S6        30.01R
LAFAYETTE      CLEAR     70  59  68 SW8       30.02R
PATTERSON      CLEAR     70  63  78 SW6       30.06S
SALT POINT       N/A     69  66  90 VRB3      30.04R
NEW IBERIA     CLEAR     70  59  68 SW7       30.04R
CHENAULT AIRPK NOT AVBL

$$

LAZ027-028-010200-
CENTRAL LOUISIANA

CITY           SKY/WX    TMP DP  RH WIND       PRES   REMARKS
FORT POLK      NOT AVBL
ALEXANDRIA INT CLEAR     75  59  57 S10       29.96R
ALEXANDRIA     CLEAR     75  60  59 S7        29.98R

$$

LAZ001-002-010200-
NORTHWEST LOUISIANA

CITY           SKY/WX    TMP DP  RH WIND       PRES   REMARKS
SHREVEPORT     PTCLDY    76  58  53 SW5       29.93R
BARKSDALE AFB  CLEAR     77  57  50 S3        29.93R
DTN SHREVEPORT CLEAR     75  57  53 SW3       29.93R

$$

LAZ014-016-010200-
NORTHEAST LOUISIANA

CITY           SKY/WX    TMP DP  RH WIND       PRES   REMARKS
MONROE         CLEAR     74  58  57 S6        29.95R
TALLULAH       CLEAR     73  58  59 S7        29.96R

$$




USA.gov is the U.S. government's official web portal to all federal, state and local government web resources and services.